Time,TemperatureF,DewpointF,PressureIn,WindDirection,WindDirectionDegrees,WindSpeedMPH,WindSpeedGustMPH,Humidity,HourlyPrecipIn,Conditions,Clouds,dailyrainin,SoftwareType,DateUTC
2014-01-02 00:01:00,-6.0,-9.8,30.51,NNW,330,0.0,0.0,83,0.00,,,0.00,WeatherCatV1.21B27,2014-01-02 06:01:00,
2014-01-02 00:06:00,-6.1,-9.9,30.51,NNW,330,0.0,0.0,83,0.00,,,0.00,WeatherCatV1.21B27,2014-01-02 06:06:00,
2014-01-02 00:11:00,-6.4,-10.2,30.51,NNW,330,0.0,0.0,83,0.00,,,0.00,WeatherCatV1.21B27,2014-01-02 06:11:00,
2014-01-02 00:16:00,-6.4,-10.2,30.51,NNW,330,0.0,0.0,83,0.00,,,0.00,WeatherCatV1.21B27,2014-01-02 06:16:00,
2014-01-02 00:21:00,-6.5,-10.3,30.52,NNW,330,0.0,0.0,83,0.00,,,0.00,WeatherCatV1.21B27,2014-01-02 06:21:00,
2014-01-02 00:26:00,-6.6,-10.4,30.51,NNW,330,0.0,0.0,83,0.00,,,0.00,WeatherCatV1.21B27,2014-01-02 06:26:00,
2014-01-02 00:31:00,-6.7,-10.5,30.51,NNW,330,0.0,0.0,83,0.00,,,0.00,WeatherCatV1.21B27,2014-01-02 06:31:00,
2014-01-02 00:36:00,-7.0,-10.8,30.51,NNW,330,0.0,0.0,83,0.00,,,0.00,WeatherCatV1.21B27,2014-01-02 06:36:00,
2014-01-02 00:41:00,-7.2,-11.2,30.51,NNW,330,0.0,0.0,82,0.00,,,0.00,WeatherCatV1.21B27,2014-01-02 06:41:00,
2014-01-02 00:46:00,-7.4,-11.2,30.51,NNW,330,0.0,0.0,83,0.00,,,0.00,WeatherCatV1.21B27,2014-01-02 06:46:00,
2014-01-02 00:51:00,-7.5,-11.3,30.51,NNW,330,0.0,0.0,83,0.00,,,0.00,WeatherCatV1.21B27,2014-01-02 06:51:00,
2014-01-02 00:56:00,-7.6,-11.4,30.51,NNW,330,0.0,0.0,83,0.00,,,0.00,WeatherCatV1.21B27,2014-01-02 06:56:00,
2014-01-02 01:01:00,-7.5,-11.3,30.51,NNW,330,0.0,0.0,83,0.00,,,0.00,WeatherCatV1.21B27,2014-01-02 07:01:00,
2014-01-02 01:06:00,-7.6,-11.4,30.51,NNW,330,0.0,0.0,83,0.00,,,0.00,WeatherCatV1.21B27,2014-01-02 07:06:00,
2014-01-02 01:07:00,-7.6,-11.4,30.51,NNW,330,0.0,0.0,83,0.00,,,0.00,WeatherCatV1.21B27,2014-01-02 07:07:00,
2014-01-02 01:12:00,-7.8,-11.6,30.52,NNW,330,0.0,0.0,83,0.00,,,0.00,WeatherCatV1.21B27,2014-01-02 07:12:00,
2014-01-02 01:17:00,-8.0,-12.0,30.51,NNW,330,0.0,0.0,82,0.00,,,0.00,WeatherCatV1.21B27,2014-01-02 07:17:00,
2014-01-02 01:22:00,-8.2,-12.2,30.51,NNW,330,0.0,0.0,82,0.00,,,0.00,WeatherCatV1.21B27,2014-01-02 07:22:00,
2014-01-02 01:27:00,-8.4,-12.4,30.50,NNW,330,0.0,0.0,82,0.00,,,0.00,WeatherCatV1.21B27,2014-01-02 07:27:00,
2014-01-02 01:32:00,-8.6,-12.8,30.51,NNW,330,0.0,0.0,81,0.00,,,0.00,WeatherCatV1.21B27,2014-01-02 07:32:00,
2014-01-02 01:37:00,-8.7,-12.7,30.51,NNW,330,0.0,0.0,82,0.00,,,0.00,WeatherCatV1.21B27,2014-01-02 07:37:00,
2014-01-02 01:42:00,-8.8,-12.5,30.51,NNW,330,0.0,1.0,83,0.00,,,0.00,WeatherCatV1.21B27,2014-01-02 07:42:00,
2014-01-02 01:47:00,-8.9,-12.9,30.51,NNW,330,0.0,0.0,82,0.00,,,0.00,WeatherCatV1.21B27,2014-01-02 07:47:00,
2014-01-02 01:52:00,-9.1,-13.1,30.51,NNW,330,0.0,0.0,82,0.00,,,0.00,WeatherCatV1.21B27,2014-01-02 07:52:00,
2014-01-02 01:57:00,-9.2,-13.2,30.51,NNW,330,0.0,0.0,82,0.00,,,0.00,WeatherCatV1.21B27,2014-01-02 07:57:00,
2014-01-02 02:02:00,-9.4,-13.4,30.51,NNW,330,0.0,0.0,82,0.00,,,0.00,WeatherCatV1.21B27,2014-01-02 08:02:00,
2014-01-02 02:07:00,-9.5,-13.5,30.51,NNW,330,0.0,0.0,82,0.00,,,0.00,WeatherCatV1.21B27,2014-01-02 08:07:00,
2014-01-02 02:12:00,-9.7,-13.7,30.51,NNW,330,0.0,0.0,82,0.00,,,0.00,WeatherCatV1.21B27,2014-01-02 08:12:00,
2014-01-02 02:17:00,-9.8,-13.8,30.51,NNW,330,0.0,0.0,82,0.00,,,0.00,WeatherCatV1.21B27,2014-01-02 08:17:00,
2014-01-02 02:22:00,-9.9,-13.9,30.51,NNW,330,0.0,0.0,82,0.00,,,0.00,WeatherCatV1.21B27,2014-01-02 08:22:00,
2014-01-02 02:27:00,-10.0,-14.0,30.52,NNW,330,0.0,0.0,82,0.00,,,0.00,WeatherCatV1.21B27,2014-01-02 08:27:00,
2014-01-02 02:32:00,-10.0,-14.0,30.52,NNW,330,0.0,0.0,82,0.00,,,0.00,WeatherCatV1.21B27,2014-01-02 08:32:00,
2014-01-02 02:37:00,-10.0,-14.0,30.52,NNW,330,0.0,0.0,82,0.00,,,0.00,WeatherCatV1.21B27,2014-01-02 08:37:00,
2014-01-02 02:42:00,-9.8,-13.5,30.52,NNW,330,0.0,1.0,83,0.00,,,0.00,WeatherCatV1.21B27,2014-01-02 08:42:00,
2014-01-02 02:47:00,-9.8,-13.5,30.51,NNW,330,0.0,1.0,83,0.00,,,0.00,WeatherCatV1.21B27,2014-01-02 08:47:00,
2014-01-02 02:52:00,-9.8,-13.5,30.51,NNW,330,0.0,1.0,83,0.00,,,0.00,WeatherCatV1.21B27,2014-01-02 08:52:00,
2014-01-02 02:57:00,-9.7,-13.4,30.51,NNW,330,0.0,0.0,83,0.00,,,0.00,WeatherCatV1.21B27,2014-01-02 08:57:00,
2014-01-02 03:02:00,-9.7,-13.4,30.52,NNW,330,1.0,2.0,83,0.00,,,0.00,WeatherCatV1.21B27,2014-01-02 09:02:00,
2014-01-02 03:07:00,-9.8,-13.5,30.51,NNW,330,0.0,1.0,83,0.00,,,0.00,WeatherCatV1.21B27,2014-01-02 09:07:00,
2014-01-02 03:12:00,-9.8,-13.5,30.51,NNW,330,0.0,0.0,83,0.00,,,0.00,WeatherCatV1.21B27,2014-01-02 09:12:00,
2014-01-02 03:17:00,-9.8,-13.5,30.51,NNW,330,0.0,0.0,83,0.00,,,0.00,WeatherCatV1.21B27,2014-01-02 09:17:00,
2014-01-02 03:22:00,-9.7,-13.4,30.51,NNW,330,0.0,0.0,83,0.00,,,0.00,WeatherCatV1.21B27,2014-01-02 09:22:00,
2014-01-02 03:27:00,-9.6,-13.3,30.50,NNW,330,0.0,0.0,83,0.00,,,0.00,WeatherCatV1.21B27,2014-01-02 09:27:00,
2014-01-02 03:32:00,-9.6,-13.3,30.50,NNW,330,0.0,0.0,83,0.00,,,0.00,WeatherCatV1.21B27,2014-01-02 09:32:00,
2014-01-02 03:37:00,-9.5,-13.2,30.51,NNW,330,0.0,0.0,83,0.00,,,0.00,WeatherCatV1.21B27,2014-01-02 09:37:00,
2014-01-02 03:42:00,-9.3,-13.0,30.51,NNW,330,0.0,0.0,83,0.00,,,0.00,WeatherCatV1.21B27,2014-01-02 09:42:00,
2014-01-02 03:47:00,-9.2,-12.9,30.51,NNW,330,0.0,0.0,83,0.00,,,0.00,WeatherCatV1.21B27,2014-01-02 09:47:00,
2014-01-02 03:52:00,-9.1,-12.8,30.52,NNW,330,0.0,0.0,83,0.00,,,0.00,WeatherCatV1.21B27,2014-01-02 09:52:00,
2014-01-02 03:57:00,-9.1,-12.8,30.52,NNW,330,0.0,0.0,83,0.00,,,0.00,WeatherCatV1.21B27,2014-01-02 09:57:00,
2014-01-02 04:02:00,-9.0,-12.7,30.52,NNW,330,0.0,0.0,83,0.00,,,0.00,WeatherCatV1.21B27,2014-01-02 10:02:00,
2014-01-02 04:07:00,-8.9,-12.6,30.52,NNW,330,0.0,1.0,83,0.00,,,0.00,WeatherCatV1.21B27,2014-01-02 10:07:00,
2014-01-02 04:12:00,-8.8,-12.5,30.53,NNW,330,0.0,1.0,83,0.00,,,0.00,WeatherCatV1.21B27,2014-01-02 10:12:00,
2014-01-02 04:17:00,-8.6,-12.3,30.53,NNW,330,0.0,0.0,83,0.00,,,0.00,WeatherCatV1.21B27,2014-01-02 10:17:00,
2014-01-02 04:22:00,-8.6,-12.3,30.53,NNW,330,0.0,1.0,83,0.00,,,0.00,WeatherCatV1.21B27,2014-01-02 10:22:00,
2014-01-02 04:27:00,-8.6,-12.3,30.53,NNW,330,0.0,1.0,83,0.00,,,0.00,WeatherCatV1.21B27,2014-01-02 10:27:00,
2014-01-02 04:32:00,-8.5,-12.2,30.52,NNW,330,0.0,0.0,83,0.00,,,0.00,WeatherCatV1.21B27,2014-01-02 10:32:00,
2014-01-02 04:37:00,-8.5,-12.2,30.52,NNW,330,0.0,0.0,83,0.00,,,0.00,WeatherCatV1.21B27,2014-01-02 10:37:00,
2014-01-02 04:42:00,-8.4,-12.1,30.52,NNW,330,0.0,0.0,83,0.00,,,0.00,WeatherCatV1.21B27,2014-01-02 10:42:00,
2014-01-02 04:47:00,-8.3,-12.1,30.52,NNW,330,0.0,0.0,83,0.00,,,0.00,WeatherCatV1.21B27,2014-01-02 10:47:00,
2014-01-02 04:52:00,-8.2,-11.9,30.52,NNW,330,0.0,0.0,83,0.00,,,0.00,WeatherCatV1.21B27,2014-01-02 10:52:00,
2014-01-02 04:57:00,-8.0,-11.8,30.52,NNW,330,0.0,0.0,83,0.00,,,0.00,WeatherCatV1.21B27,2014-01-02 10:57:00,
2014-01-02 05:02:00,-7.8,-11.3,30.52,NNW,330,0.0,0.0,84,0.00,,,0.00,WeatherCatV1.21B27,2014-01-02 11:02:00,
2014-01-02 05:07:00,-7.6,-11.1,30.52,NNW,330,0.0,0.0,84,0.00,,,0.00,WeatherCatV1.21B27,2014-01-02 11:07:00,
2014-01-02 05:12:00,-7.4,-10.9,30.53,NNW,330,0.0,0.0,84,0.00,,,0.00,WeatherCatV1.21B27,2014-01-02 11:12:00,
2014-01-02 05:17:00,-7.2,-10.7,30.52,NNW,330,0.0,0.0,84,0.00,,,0.00,WeatherCatV1.21B27,2014-01-02 11:17:00,
2014-01-02 05:22:00,-7.0,-10.5,30.52,NNW,330,0.0,0.0,84,0.00,,,0.00,WeatherCatV1.21B27,2014-01-02 11:22:00,
2014-01-02 05:27:00,-6.7,-10.2,30.53,NNW,330,0.0,0.0,84,0.00,,,0.00,WeatherCatV1.21B27,2014-01-02 11:27:00,
2014-01-02 05:32:00,-6.4,-9.9,30.53,NNW,330,0.0,0.0,84,0.00,,,0.00,WeatherCatV1.21B27,2014-01-02 11:32:00,
2014-01-02 05:37:00,-6.2,-9.8,30.53,NNW,330,0.0,0.0,84,0.00,,,0.00,WeatherCatV1.21B27,2014-01-02 11:37:00,
2014-01-02 05:42:00,-6.0,-9.6,30.53,NNW,330,0.0,0.0,84,0.00,,,0.00,WeatherCatV1.21B27,2014-01-02 11:42:00,
2014-01-02 05:47:00,-5.8,-9.4,30.53,NNW,332,0.0,1.0,84,0.00,,,0.00,WeatherCatV1.21B27,2014-01-02 11:47:00,
2014-01-02 05:52:00,-5.8,-9.6,30.53,NNW,332,0.0,1.0,83,0.00,,,0.00,WeatherCatV1.21B27,2014-01-02 11:52:00,
2014-01-02 05:57:00,-5.9,-9.7,30.53,NNW,333,0.0,1.0,83,0.00,,,0.00,WeatherCatV1.21B27,2014-01-02 11:57:00,
2014-01-02 06:02:00,-6.1,-10.1,30.54,NNW,333,0.0,2.0,82,0.00,,,0.00,WeatherCatV1.21B27,2014-01-02 12:02:00,
2014-01-02 06:07:00,-6.3,-10.3,30.54,NNW,333,0.0,1.0,82,0.00,,,0.00,WeatherCatV1.21B27,2014-01-02 12:07:00,
2014-01-02 06:12:00,-6.4,-10.4,30.54,NNW,333,0.0,0.0,82,0.00,,,0.00,WeatherCatV1.21B27,2014-01-02 12:12:00,
2014-01-02 06:17:00,-6.7,-10.7,30.54,NNW,333,0.0,0.0,82,0.00,,,0.00,WeatherCatV1.21B27,2014-01-02 12:17:00,
2014-01-02 06:22:00,-6.9,-10.9,30.54,NNW,333,0.0,0.0,82,0.00,,,0.00,WeatherCatV1.21B27,2014-01-02 12:22:00,
2014-01-02 06:27:00,-7.1,-11.1,30.54,NNW,333,0.0,0.0,82,0.00,,,0.00,WeatherCatV1.21B27,2014-01-02 12:27:00,
2014-01-02 06:32:00,-7.4,-11.4,30.55,NNW,333,0.0,0.0,82,0.00,,,0.00,WeatherCatV1.21B27,2014-01-02 12:32:00,
2014-01-02 06:37:00,-7.5,-11.5,30.55,NNW,333,0.0,0.0,82,0.00,,,0.00,WeatherCatV1.21B27,2014-01-02 12:37:00,
2014-01-02 06:42:00,-7.7,-11.7,30.56,NNW,333,0.0,1.0,82,0.00,,,0.00,WeatherCatV1.21B27,2014-01-02 12:42:00,
2014-01-02 06:47:00,-7.8,-11.8,30.56,NNW,333,0.0,0.0,82,0.00,,,0.00,WeatherCatV1.21B27,2014-01-02 12:47:00,
2014-01-02 06:52:00,-8.0,-12.0,30.56,NNW,333,0.0,1.0,82,0.00,,,0.00,WeatherCatV1.21B27,2014-01-02 12:52:00,
2014-01-02 06:57:00,-8.1,-12.1,30.56,NNW,333,0.0,0.0,82,0.00,,,0.00,WeatherCatV1.21B27,2014-01-02 12:57:00,
2014-01-02 07:02:00,-8.3,-12.3,30.55,NNW,333,0.0,0.0,82,0.00,,,0.00,WeatherCatV1.21B27,2014-01-02 13:02:00,
2014-01-02 07:07:00,-8.5,-12.5,30.56,NNW,333,0.0,0.0,82,0.00,,,0.00,WeatherCatV1.21B27,2014-01-02 13:07:00,
2014-01-02 07:12:00,-8.7,-12.7,30.56,NNW,333,0.0,0.0,82,0.00,,,0.00,WeatherCatV1.21B27,2014-01-02 13:12:00,
2014-01-02 07:17:00,-8.8,-12.8,30.55,NNW,333,0.0,0.0,82,0.00,,,0.00,WeatherCatV1.21B27,2014-01-02 13:17:00,
2014-01-02 07:22:00,-8.9,-12.9,30.55,NNW,333,0.0,0.0,82,0.00,,,0.00,WeatherCatV1.21B27,2014-01-02 13:22:00,
2014-01-02 07:27:00,-9.0,-13.0,30.56,NNW,333,0.0,0.0,82,0.00,,,0.00,WeatherCatV1.21B27,2014-01-02 13:27:00,
2014-01-02 07:32:00,-9.1,-13.1,30.56,NNW,333,0.0,0.0,82,0.00,,,0.00,WeatherCatV1.21B27,2014-01-02 13:32:00,
2014-01-02 07:37:00,-9.3,-13.3,30.56,NNW,333,0.0,0.0,82,0.00,,,0.00,WeatherCatV1.21B27,2014-01-02 13:37:00,
2014-01-02 07:42:00,-9.5,-13.7,30.56,NNW,333,0.0,0.0,81,0.00,,,0.00,WeatherCatV1.21B27,2014-01-02 13:42:00,
2014-01-02 07:47:00,-9.8,-14.0,30.56,NNW,333,0.0,0.0,81,0.00,,,0.00,WeatherCatV1.21B27,2014-01-02 13:47:00,
2014-01-02 07:52:00,-9.9,-14.1,30.56,NNW,333,0.0,0.0,81,0.00,,,0.00,WeatherCatV1.21B27,2014-01-02 13:52:00,
2014-01-02 07:57:00,-10.1,-14.1,30.56,NNW,333,0.0,0.0,82,0.00,,,0.00,WeatherCatV1.21B27,2014-01-02 13:57:00,
2014-01-02 08:02:00,-10.2,-14.1,30.57,NNW,333,0.0,0.0,82,0.00,,,0.00,WeatherCatV1.21B27,2014-01-02 14:02:00,
2014-01-02 08:07:00,-10.3,-14.2,30.57,NNW,333,0.0,0.0,82,0.00,,,0.00,WeatherCatV1.21B27,2014-01-02 14:07:00,
2014-01-02 08:12:00,-10.4,-14.4,30.57,NNW,333,0.0,0.0,82,0.00,,,0.00,WeatherCatV1.21B27,2014-01-02 14:12:00,
2014-01-02 08:17:00,-10.5,-14.4,30.57,NNW,333,0.0,0.0,82,0.00,,,0.00,WeatherCatV1.21B27,2014-01-02 14:17:00,
2014-01-02 08:22:00,-10.7,-14.9,30.57,NNW,333,0.0,0.0,81,0.00,,,0.00,WeatherCatV1.21B27,2014-01-02 14:22:00,
2014-01-02 08:27:00,-10.6,-14.5,30.57,NNW,333,0.0,0.0,82,0.00,,,0.00,WeatherCatV1.21B27,2014-01-02 14:27:00,
2014-01-02 08:32:00,-10.4,-14.1,30.58,NNW,333,0.0,0.0,83,0.00,,,0.00,WeatherCatV1.21B27,2014-01-02 14:32:00,
2014-01-02 08:37:00,-10.2,-13.9,30.58,NNW,333,0.0,0.0,83,0.00,,,0.00,WeatherCatV1.21B27,2014-01-02 14:37:00,
2014-01-02 08:42:00,-10.2,-14.1,30.59,NNW,333,0.0,1.0,82,0.00,,,0.00,WeatherCatV1.21B27,2014-01-02 14:42:00,
2014-01-02 08:47:00,-10.0,-14.0,30.59,NNW,333,0.0,0.0,82,0.00,,,0.00,WeatherCatV1.21B27,2014-01-02 14:47:00,
2014-01-02 08:52:00,-9.8,-13.5,30.59,NNW,333,1.0,1.0,83,0.00,,,0.00,WeatherCatV1.21B27,2014-01-02 14:52:00,
2014-01-02 08:57:00,-9.6,-13.3,30.59,NNW,333,0.0,2.0,83,0.00,,,0.00,WeatherCatV1.21B27,2014-01-02 14:57:00,
2014-01-02 09:02:00,-9.4,-13.1,30.60,NNW,333,0.0,1.0,83,0.00,,,0.00,WeatherCatV1.21B27,2014-01-02 15:02:00,
2014-01-02 09:07:00,-9.0,-12.7,30.60,NNW,333,1.0,1.0,83,0.00,,,0.00,WeatherCatV1.21B27,2014-01-02 15:07:00,
2014-01-02 09:12:00,-8.7,-12.4,30.60,NNW,333,0.0,1.0,83,0.00,,,0.00,WeatherCatV1.21B27,2014-01-02 15:12:00,
2014-01-02 09:17:00,-8.5,-12.2,30.61,NNW,333,0.0,1.0,83,0.00,,,0.00,WeatherCatV1.21B27,2014-01-02 15:17:00,
2014-01-02 09:22:00,-8.3,-12.1,30.60,NNW,333,0.0,1.0,83,0.00,,,0.00,WeatherCatV1.21B27,2014-01-02 15:22:00,
2014-01-02 09:27:00,-7.9,-11.7,30.60,NNW,333,0.0,0.0,83,0.00,,,0.00,WeatherCatV1.21B27,2014-01-02 15:27:00,
2014-01-02 09:32:00,-7.5,-11.3,30.60,NNW,333,0.0,0.0,83,0.00,,,0.00,WeatherCatV1.21B27,2014-01-02 15:32:00,
2014-01-02 09:37:00,-7.1,-10.9,30.60,NNW,333,0.0,1.0,83,0.00,,,0.00,WeatherCatV1.21B27,2014-01-02 15:37:00,
2014-01-02 09:42:00,-6.9,-10.9,30.61,NNW,333,2.0,2.0,82,0.00,,,0.00,WeatherCatV1.21B27,2014-01-02 15:42:00,
2014-01-02 09:47:00,-6.5,-10.3,30.60,NNW,333,1.0,1.0,83,0.00,,,0.00,WeatherCatV1.21B27,2014-01-02 15:47:00,
2014-01-02 09:52:00,-5.8,-9.4,30.60,NNW,333,0.0,2.0,84,0.00,,,0.00,WeatherCatV1.21B27,2014-01-02 15:52:00,
2014-01-02 09:57:00,-5.1,-8.7,30.60,NNW,333,0.0,2.0,84,0.00,,,0.00,WeatherCatV1.21B27,2014-01-02 15:57:00,
2014-01-02 10:02:00,-4.4,-8.2,30.60,NW,325,1.0,1.0,83,0.00,,,0.00,WeatherCatV1.21B27,2014-01-02 16:02:00,
2014-01-02 10:07:00,-4.9,-9.2,30.61,NW,326,1.0,3.0,81,0.00,,,0.00,WeatherCatV1.21B27,2014-01-02 16:07:00,
2014-01-02 10:12:00,-4.7,-8.8,30.61,NNW,327,2.0,2.0,82,0.00,,,0.00,WeatherCatV1.21B27,2014-01-02 16:12:00,
2014-01-02 10:17:00,-4.0,-8.1,30.61,NNW,328,0.0,2.0,82,0.00,,,0.00,WeatherCatV1.21B27,2014-01-02 16:17:00,
2014-01-02 10:22:00,-3.3,-7.4,30.61,NNW,328,0.0,2.0,82,0.00,,,0.00,WeatherCatV1.21B27,2014-01-02 16:22:00,
2014-01-02 10:27:00,-2.4,-6.8,30.61,NNW,328,2.0,2.0,81,0.00,,,0.00,WeatherCatV1.21B27,2014-01-02 16:27:00,
2014-01-02 10:32:00,-1.9,-6.5,30.61,NNW,329,1.0,2.0,80,0.00,,,0.00,WeatherCatV1.21B27,2014-01-02 16:32:00,
2014-01-02 10:37:00,-1.9,-6.8,30.61,NNW,329,2.0,3.0,79,0.00,,,0.00,WeatherCatV1.21B27,2014-01-02 16:37:00,
2014-01-02 10:42:00,-1.8,-6.7,30.61,NNE,23,0.0,2.0,79,0.00,,,0.00,WeatherCatV1.21B27,2014-01-02 16:42:00,
2014-01-02 10:47:00,-1.4,-6.3,30.61,NE,35,0.0,4.0,79,0.00,,,0.00,WeatherCatV1.21B27,2014-01-02 16:47:00,
2014-01-02 10:52:00,-1.1,-6.3,30.62,NE,35,0.0,2.0,78,0.00,,,0.00,WeatherCatV1.21B27,2014-01-02 16:52:00,
2014-01-02 10:57:00,-0.8,-6.0,30.62,NE,40,0.0,3.0,78,0.00,,,0.00,WeatherCatV1.21B27,2014-01-02 16:57:00,
2014-01-02 11:02:00,-0.7,-6.2,30.61,NE,39,0.0,1.0,77,0.00,,,0.00,WeatherCatV1.21B27,2014-01-02 17:02:00,
2014-01-02 11:07:00,-0.3,-5.8,30.62,NE,44,0.0,2.0,77,0.00,,,0.00,WeatherCatV1.21B27,2014-01-02 17:07:00,
2014-01-02 11:12:00,-0.1,-5.8,30.62,NNE,30,0.0,2.0,76,0.00,,,0.00,WeatherCatV1.21B27,2014-01-02 17:12:00,
2014-01-02 11:17:00,0.0,-5.7,30.61,NE,38,0.0,3.0,76,0.00,,,0.00,WeatherCatV1.21B27,2014-01-02 17:17:00,
2014-01-02 11:22:00,0.0,-6.0,30.61,NE,39,1.0,2.0,75,0.00,,,0.00,WeatherCatV1.21B27,2014-01-02 17:22:00,
2014-01-02 11:27:00,0.0,-6.0,30.61,NE,39,0.0,2.0,75,0.00,,,0.00,WeatherCatV1.21B27,2014-01-02 17:27:00,
2014-01-02 11:32:00,0.3,-5.7,30.61,NE,39,1.0,2.0,75,0.00,,,0.00,WeatherCatV1.21B27,2014-01-02 17:32:00,
2014-01-02 11:37:00,0.3,-6.0,30.60,NE,43,2.0,2.0,74,0.00,,,0.00,WeatherCatV1.21B27,2014-01-02 17:37:00,
2014-01-02 11:43:00,0.2,-6.1,30.61,NE,37,2.0,2.0,74,0.00,,,0.00,WeatherCatV1.21B27,2014-01-02 17:43:00,
2014-01-02 11:48:00,-0.2,-6.5,30.61,NE,37,0.0,3.0,74,0.00,,,0.00,WeatherCatV1.21B27,2014-01-02 17:48:00,
2014-01-02 11:53:00,-0.3,-6.3,30.61,NE,37,2.0,2.0,75,0.00,,,0.00,WeatherCatV1.21B27,2014-01-02 17:53:00,
2014-01-02 11:58:00,0.0,-6.0,30.61,NE,36,0.0,2.0,75,0.00,,,0.00,WeatherCatV1.21B27,2014-01-02 17:58:00,
2014-01-02 12:03:00,0.2,-6.1,30.61,NE,36,1.0,3.0,74,0.00,,,0.00,WeatherCatV1.21B27,2014-01-02 18:03:00,
2014-01-02 12:08:00,0.5,-5.5,30.61,NE,37,0.0,1.0,75,0.00,,,0.00,WeatherCatV1.21B27,2014-01-02 18:08:00,
2014-01-02 12:13:00,0.6,-5.7,30.61,NE,41,0.0,3.0,74,0.00,,,0.00,WeatherCatV1.21B27,2014-01-02 18:13:00,
2014-01-02 12:18:00,0.5,-5.8,30.60,North,355,1.0,3.0,74,0.00,,,0.00,WeatherCatV1.21B27,2014-01-02 18:18:00,
2014-01-02 12:23:00,0.3,-6.0,30.60,North,355,0.0,1.0,74,0.00,,,0.00,WeatherCatV1.21B27,2014-01-02 18:23:00,
2014-01-02 12:28:00,0.6,-5.4,30.60,North,355,0.0,2.0,75,0.00,,,0.00,WeatherCatV1.21B27,2014-01-02 18:28:00,
2014-01-02 12:33:00,1.1,-5.2,30.60,North,355,0.0,2.0,74,0.00,,,0.00,WeatherCatV1.21B27,2014-01-02 18:33:00,
2014-01-02 12:38:00,1.4,-5.2,30.59,North,355,0.0,1.0,73,0.00,,,0.00,WeatherCatV1.21B27,2014-01-02 18:38:00,
2014-01-02 12:43:00,1.4,-5.2,30.59,North,355,0.0,1.0,73,0.00,,,0.00,WeatherCatV1.21B27,2014-01-02 18:43:00,
2014-01-02 12:48:00,1.1,-5.5,30.59,North,355,0.0,1.0,73,0.00,,,0.00,WeatherCatV1.21B27,2014-01-02 18:48:00,
2014-01-02 12:53:00,1.4,-5.2,30.58,North,0,0.0,0.0,73,0.00,,,0.00,WeatherCatV1.21B27,2014-01-02 18:53:00,
2014-01-02 12:58:00,1.6,-5.3,30.58,North,0,0.0,0.0,72,0.00,,,0.00,WeatherCatV1.21B27,2014-01-02 18:58:00,
2014-01-02 13:03:00,2.0,-4.6,30.58,North,0,0.0,0.0,73,0.00,,,0.00,WeatherCatV1.21B27,2014-01-02 19:03:00,
2014-01-02 13:08:00,2.3,-4.6,30.58,North,0,0.0,1.0,72,0.00,,,0.00,WeatherCatV1.21B27,2014-01-02 19:08:00,
2014-01-02 13:13:00,2.2,-5.0,30.58,North,0,1.0,2.0,71,0.00,,,0.00,WeatherCatV1.21B27,2014-01-02 19:13:00,
2014-01-02 13:18:00,1.9,-5.3,30.58,North,0,0.0,2.0,71,0.00,,,0.00,WeatherCatV1.21B27,2014-01-02 19:18:00,
2014-01-02 13:23:00,1.8,-5.1,30.58,North,0,0.0,0.0,72,0.00,,,0.00,WeatherCatV1.21B27,2014-01-02 19:23:00,
2014-01-02 13:28:00,1.8,-5.1,30.58,North,0,0.0,1.0,72,0.00,,,0.00,WeatherCatV1.21B27,2014-01-02 19:28:00,
2014-01-02 13:33:00,2.1,-4.8,30.58,North,0,0.0,1.0,72,0.00,,,0.00,WeatherCatV1.21B27,2014-01-02 19:33:00,
2014-01-02 13:38:00,2.6,-4.3,30.58,North,0,0.0,1.0,72,0.00,,,0.00,WeatherCatV1.21B27,2014-01-02 19:38:00,
2014-01-02 13:43:00,3.0,-4.0,30.58,North,356,0.0,1.0,72,0.00,,,0.00,WeatherCatV1.21B27,2014-01-02 19:43:00,
2014-01-02 13:48:00,3.5,-3.5,30.58,North,0,0.0,1.0,72,0.00,,,0.00,WeatherCatV1.21B27,2014-01-02 19:48:00,
2014-01-02 13:53:00,3.0,-4.5,30.58,North,0,1.0,2.0,70,0.00,,,0.00,WeatherCatV1.21B27,2014-01-02 19:53:00,
2014-01-02 13:58:00,2.8,-4.4,30.57,North,0,0.0,0.0,71,0.00,,,0.00,WeatherCatV1.21B27,2014-01-02 19:58:00,
2014-01-02 14:03:00,3.1,-3.8,30.57,North,0,0.0,1.0,72,0.00,,,0.00,WeatherCatV1.21B27,2014-01-02 20:03:00,
2014-01-02 14:08:00,3.3,-4.2,30.57,North,5,0.0,1.0,70,0.00,,,0.00,WeatherCatV1.21B27,2014-01-02 20:08:00,
2014-01-02 14:13:00,3.1,-4.4,30.57,NNW,345,0.0,1.0,70,0.00,,,0.00,WeatherCatV1.21B27,2014-01-02 20:13:00,
2014-01-02 14:18:00,3.3,-4.2,30.57,NNW,345,0.0,0.0,70,0.00,,,0.00,WeatherCatV1.21B27,2014-01-02 20:18:00,
2014-01-02 14:23:00,2.8,-5.0,30.57,NNW,330,0.0,2.0,69,0.00,,,0.00,WeatherCatV1.21B27,2014-01-02 20:23:00,
2014-01-02 14:28:00,1.9,-5.9,30.58,WNW,298,0.0,2.0,69,0.00,,,0.00,WeatherCatV1.21B27,2014-01-02 20:28:00,
2014-01-02 14:33:00,1.4,-5.8,30.58,WNW,298,1.0,2.0,71,0.00,,,0.00,WeatherCatV1.21B27,2014-01-02 20:33:00,
2014-01-02 14:38:00,1.1,-6.1,30.58,WNW,298,0.0,3.0,71,0.00,,,0.00,WeatherCatV1.21B27,2014-01-02 20:38:00,
2014-01-02 14:43:00,1.2,-5.7,30.57,WNW,298,1.0,2.0,72,0.00,,,0.00,WeatherCatV1.21B27,2014-01-02 20:43:00,
2014-01-02 14:48:00,1.6,-5.3,30.57,WNW,299,0.0,2.0,72,0.00,,,0.00,WeatherCatV1.21B27,2014-01-02 20:48:00,
2014-01-02 14:53:00,1.7,-5.5,30.57,WNW,299,0.0,1.0,71,0.00,,,0.00,WeatherCatV1.21B27,2014-01-02 20:53:00,
2014-01-02 14:58:00,1.8,-5.1,30.56,WNW,299,0.0,0.0,72,0.00,,,0.00,WeatherCatV1.21B27,2014-01-02 20:58:00,
2014-01-02 15:03:00,2.0,-5.2,30.56,WNW,299,0.0,1.0,71,0.00,,,0.00,WeatherCatV1.21B27,2014-01-02 21:03:00,
2014-01-02 15:08:00,2.2,-5.0,30.56,WNW,299,0.0,0.0,71,0.00,,,0.00,WeatherCatV1.21B27,2014-01-02 21:08:00,
2014-01-02 15:13:00,2.2,-5.0,30.56,WNW,299,0.0,1.0,71,0.00,,,0.00,WeatherCatV1.21B27,2014-01-02 21:13:00,
2014-01-02 15:18:00,2.2,-5.0,30.56,WNW,299,0.0,1.0,71,0.00,,,0.00,WeatherCatV1.21B27,2014-01-02 21:18:00,
2014-01-02 15:23:00,2.2,-4.7,30.57,WNW,299,1.0,2.0,72,0.00,,,0.00,WeatherCatV1.21B27,2014-01-02 21:23:00,
2014-01-02 15:28:00,2.3,-4.9,30.57,WNW,299,0.0,1.0,71,0.00,,,0.00,WeatherCatV1.21B27,2014-01-02 21:28:00,
2014-01-02 15:33:00,1.9,-5.3,30.57,WNW,299,1.0,2.0,71,0.00,,,0.00,WeatherCatV1.21B27,2014-01-02 21:33:00,
2014-01-02 15:38:00,1.8,-5.4,30.57,WNW,299,0.0,0.0,71,0.00,,,0.00,WeatherCatV1.21B27,2014-01-02 21:38:00,
2014-01-02 15:43:00,1.7,-5.5,30.56,WNW,299,0.0,1.0,71,0.00,,,0.00,WeatherCatV1.21B27,2014-01-02 21:43:00,
2014-01-02 15:48:00,1.8,-5.1,30.56,WNW,299,1.0,1.0,72,0.00,,,0.00,WeatherCatV1.21B27,2014-01-02 21:48:00,
2014-01-02 15:53:00,1.7,-5.2,30.57,WNW,299,0.0,1.0,72,0.00,,,0.00,WeatherCatV1.21B27,2014-01-02 21:53:00,
2014-01-02 15:58:00,1.5,-5.4,30.57,WNW,299,1.0,2.0,72,0.00,,,0.00,WeatherCatV1.21B27,2014-01-02 21:58:00,
2014-01-02 16:03:00,1.4,-5.5,30.57,WNW,299,0.0,0.0,72,0.00,,,0.00,WeatherCatV1.21B27,2014-01-02 22:03:00,
2014-01-02 16:08:00,1.3,-5.6,30.57,WNW,299,0.0,0.0,72,0.00,,,0.00,WeatherCatV1.21B27,2014-01-02 22:08:00,
2014-01-02 16:13:00,1.2,-5.7,30.57,WNW,299,0.0,0.0,72,0.00,,,0.00,WeatherCatV1.21B27,2014-01-02 22:13:00,
2014-01-02 16:18:00,1.1,-6.1,30.57,WNW,299,1.0,2.0,71,0.00,,,0.00,WeatherCatV1.21B27,2014-01-02 22:18:00,
2014-01-02 16:23:00,0.8,-6.7,30.56,SSE,164,3.0,3.0,70,0.00,,,0.00,WeatherCatV1.21B27,2014-01-02 22:23:00,
2014-01-02 16:28:00,0.5,-6.9,30.57,SSE,162,0.0,0.0,70,0.00,,,0.00,WeatherCatV1.21B27,2014-01-02 22:28:00,
2014-01-02 16:33:00,0.2,-7.5,30.56,SSE,162,0.0,2.0,69,0.00,,,0.00,WeatherCatV1.21B27,2014-01-02 22:33:00,
2014-01-02 16:38:00,-0.1,-7.8,30.56,SSE,162,1.0,1.0,69,0.00,,,0.00,WeatherCatV1.21B27,2014-01-02 22:38:00,
2014-01-02 16:43:00,-0.4,-7.8,30.56,SSE,162,2.0,3.0,70,0.00,,,0.00,WeatherCatV1.21B27,2014-01-02 22:43:00,
2014-01-02 16:48:00,-0.7,-8.1,30.56,SSE,162,1.0,2.0,70,0.00,,,0.00,WeatherCatV1.21B27,2014-01-02 22:48:00,
2014-01-02 16:53:00,-0.9,-8.3,30.56,SSE,162,0.0,3.0,70,0.00,,,0.00,WeatherCatV1.21B27,2014-01-02 22:53:00,
2014-01-02 16:58:00,-1.1,-8.2,30.56,SSE,162,1.0,2.0,71,0.00,,,0.00,WeatherCatV1.21B27,2014-01-02 22:58:00,
2014-01-02 17:03:00,-1.3,-8.4,30.56,SSE,162,1.0,4.0,71,0.00,,,0.00,WeatherCatV1.21B27,2014-01-02 23:03:00,
2014-01-02 17:08:00,-1.5,-8.6,30.56,ESE,116,1.0,4.0,71,0.00,,,0.00,WeatherCatV1.21B27,2014-01-02 23:08:00,
2014-01-02 17:13:00,-1.8,-8.6,30.56,ESE,116,3.0,4.0,72,0.00,,,0.00,WeatherCatV1.21B27,2014-01-02 23:13:00,
2014-01-02 17:18:00,-1.9,-8.7,30.56,ESE,117,2.0,3.0,72,0.00,,,0.00,WeatherCatV1.21B27,2014-01-02 23:18:00,
2014-01-02 17:23:00,-2.1,-8.6,30.56,ESE,117,0.0,3.0,73,0.00,,,0.00,WeatherCatV1.21B27,2014-01-02 23:23:00,
2014-01-02 17:28:00,-2.3,-8.8,30.56,ESE,117,0.0,0.0,73,0.00,,,0.00,WeatherCatV1.21B27,2014-01-02 23:28:00,
2014-01-02 17:33:00,-2.5,-8.7,30.57,ESE,117,0.0,2.0,74,0.00,,,0.00,WeatherCatV1.21B27,2014-01-02 23:33:00,
2014-01-02 17:38:00,-2.6,-8.8,30.57,ESE,117,2.0,2.0,74,0.00,,,0.00,WeatherCatV1.21B27,2014-01-02 23:38:00,
2014-01-02 17:43:00,-2.7,-8.9,30.57,ESE,117,0.0,1.0,74,0.00,,,0.00,WeatherCatV1.21B27,2014-01-02 23:43:00,
2014-01-02 17:48:00,-2.8,-9.0,30.57,ESE,117,0.0,1.0,74,0.00,,,0.00,WeatherCatV1.21B27,2014-01-02 23:48:00,
2014-01-02 17:53:00,-3.0,-8.9,30.56,ESE,117,0.0,2.0,75,0.00,,,0.00,WeatherCatV1.21B27,2014-01-02 23:53:00,
2014-01-02 17:58:00,-3.2,-9.1,30.56,ESE,117,1.0,1.0,75,0.00,,,0.00,WeatherCatV1.21B27,2014-01-02 23:58:00,
2014-01-02 18:03:00,-3.2,-8.8,30.56,ESE,117,0.0,2.0,76,0.00,,,0.00,WeatherCatV1.21B27,2014-01-03 00:03:00,
2014-01-02 18:08:00,-3.3,-8.9,30.55,ESE,117,0.0,1.0,76,0.00,,,0.00,WeatherCatV1.21B27,2014-01-03 00:08:00,
2014-01-02 18:13:00,-3.5,-9.1,30.55,ESE,117,1.0,2.0,76,0.00,,,0.00,WeatherCatV1.21B27,2014-01-03 00:13:00,
2014-01-02 18:18:00,-3.6,-9.2,30.55,ESE,117,0.0,2.0,76,0.00,,,0.00,WeatherCatV1.21B27,2014-01-03 00:18:00,
2014-01-02 18:23:00,-3.7,-9.3,30.54,ESE,117,0.0,2.0,76,0.00,,,0.00,WeatherCatV1.21B27,2014-01-03 00:23:00,
2014-01-02 18:28:00,-3.8,-9.2,30.54,ESE,117,1.0,2.0,77,0.00,,,0.00,WeatherCatV1.21B27,2014-01-03 00:28:00,
2014-01-02 18:33:00,-3.9,-9.3,30.54,ESE,117,1.0,2.0,77,0.00,,,0.00,WeatherCatV1.21B27,2014-01-03 00:33:00,
2014-01-02 18:38:00,-3.9,-9.3,30.54,ESE,118,0.0,3.0,77,0.00,,,0.00,WeatherCatV1.21B27,2014-01-03 00:38:00,
2014-01-02 18:43:00,-4.0,-9.4,30.54,ESE,118,0.0,1.0,77,0.00,,,0.00,WeatherCatV1.21B27,2014-01-03 00:43:00,
2014-01-02 18:48:00,-4.0,-9.4,30.54,SE,126,3.0,5.0,77,0.00,,,0.00,WeatherCatV1.21B27,2014-01-03 00:48:00,
2014-01-02 18:53:00,-4.1,-9.4,30.54,SE,126,0.0,3.0,77,0.00,,,0.00,WeatherCatV1.21B27,2014-01-03 00:53:00,
2014-01-02 18:58:00,-4.2,-9.6,30.55,SE,126,0.0,2.0,77,0.00,,,0.00,WeatherCatV1.21B27,2014-01-03 00:58:00,
2014-01-02 19:03:00,-4.2,-9.6,30.54,SE,126,2.0,2.0,77,0.00,,,0.00,WeatherCatV1.21B27,2014-01-03 01:03:00,
2014-01-02 19:08:00,-4.3,-9.6,30.54,SE,126,0.0,1.0,77,0.00,,,0.00,WeatherCatV1.21B27,2014-01-03 01:08:00,
2014-01-02 19:13:00,-4.3,-9.6,30.54,SE,126,0.0,1.0,77,0.00,,,0.00,WeatherCatV1.21B27,2014-01-03 01:13:00,
2014-01-02 19:18:00,-4.3,-9.6,30.54,SE,126,0.0,1.0,77,0.00,,,0.00,WeatherCatV1.21B27,2014-01-03 01:18:00,
2014-01-02 19:23:00,-4.4,-9.8,30.54,SE,126,0.0,3.0,77,0.00,,,0.00,WeatherCatV1.21B27,2014-01-03 01:23:00,
2014-01-02 19:28:00,-4.5,-9.8,30.54,SE,126,0.0,2.0,77,0.00,,,0.00,WeatherCatV1.21B27,2014-01-03 01:28:00,
2014-01-02 19:33:00,-4.5,-9.8,30.54,SE,126,1.0,1.0,77,0.00,,,0.00,WeatherCatV1.21B27,2014-01-03 01:33:00,
2014-01-02 19:38:00,-4.6,-9.9,30.54,SE,126,2.0,3.0,77,0.00,,,0.00,WeatherCatV1.21B27,2014-01-03 01:38:00,
2014-01-02 19:43:00,-4.6,-9.9,30.53,SE,126,0.0,2.0,77,0.00,,,0.00,WeatherCatV1.21B27,2014-01-03 01:43:00,
2014-01-02 19:48:00,-4.7,-10.0,30.53,SE,126,0.0,2.0,77,0.00,,,0.00,WeatherCatV1.21B27,2014-01-03 01:48:00,
2014-01-02 19:53:00,-4.7,-9.8,30.53,SE,126,0.0,1.0,78,0.00,,,0.00,WeatherCatV1.21B27,2014-01-03 01:53:00,
2014-01-02 19:58:00,-4.7,-9.8,30.52,SE,126,0.0,2.0,78,0.00,,,0.00,WeatherCatV1.21B27,2014-01-03 01:58:00,
2014-01-02 20:03:00,-4.6,-9.7,30.52,SE,126,1.0,2.0,78,0.00,,,0.00,WeatherCatV1.21B27,2014-01-03 02:03:00,
2014-01-02 20:08:00,-4.6,-9.7,30.52,SE,126,0.0,0.0,78,0.00,,,0.00,WeatherCatV1.21B27,2014-01-03 02:08:00,
2014-01-02 20:13:00,-4.6,-9.9,30.52,SE,126,1.0,2.0,77,0.00,,,0.00,WeatherCatV1.21B27,2014-01-03 02:13:00,
2014-01-02 20:18:00,-4.6,-9.9,30.51,SE,126,1.0,3.0,77,0.00,,,0.00,WeatherCatV1.21B27,2014-01-03 02:18:00,
2014-01-02 20:23:00,-4.5,-9.6,30.51,SE,126,0.0,1.0,78,0.00,,,0.00,WeatherCatV1.21B27,2014-01-03 02:23:00,
2014-01-02 20:28:00,-4.6,-9.9,30.51,SE,126,0.0,2.0,77,0.00,,,0.00,WeatherCatV1.21B27,2014-01-03 02:28:00,
2014-01-02 20:33:00,-4.5,-9.6,30.51,SE,126,1.0,1.0,78,0.00,,,0.00,WeatherCatV1.21B27,2014-01-03 02:33:00,
2014-01-02 20:38:00,-4.4,-9.5,30.51,SE,126,0.0,2.0,78,0.00,,,0.00,WeatherCatV1.21B27,2014-01-03 02:38:00,
2014-01-02 20:43:00,-4.3,-9.4,30.50,SE,126,0.0,4.0,78,0.00,,,0.00,WeatherCatV1.21B27,2014-01-03 02:43:00,
2014-01-02 20:48:00,-4.2,-9.6,30.50,SE,126,0.0,2.0,77,0.00,,,0.00,WeatherCatV1.21B27,2014-01-03 02:48:00,
2014-01-02 20:53:00,-4.2,-9.6,30.50,SE,126,0.0,1.0,77,0.00,,,0.00,WeatherCatV1.21B27,2014-01-03 02:53:00,
2014-01-02 20:58:00,-4.1,-9.2,30.49,SE,126,1.0,2.0,78,0.00,,,0.00,WeatherCatV1.21B27,2014-01-03 02:58:00,
2014-01-02 21:03:00,-3.7,-8.8,30.49,SE,128,1.0,2.0,78,0.00,,,0.00,WeatherCatV1.21B27,2014-01-03 03:03:00,
2014-01-02 21:08:00,-3.4,-8.5,30.48,ESE,122,3.0,3.0,78,0.00,,,0.00,WeatherCatV1.21B27,2014-01-03 03:08:00,
2014-01-02 21:13:00,-2.9,-8.3,30.48,ESE,116,0.0,5.0,77,0.00,,,0.00,WeatherCatV1.21B27,2014-01-03 03:13:00,
2014-01-02 21:18:00,-2.5,-7.9,30.47,ESE,116,0.0,4.0,77,0.00,,,0.00,WeatherCatV1.21B27,2014-01-03 03:18:00,
2014-01-02 21:23:00,-2.3,-7.7,30.47,ESE,122,0.0,5.0,77,0.00,,,0.00,WeatherCatV1.21B27,2014-01-03 03:23:00,
2014-01-02 21:28:00,-2.1,-7.5,30.46,ESE,112,1.0,6.0,77,0.00,,,0.00,WeatherCatV1.21B27,2014-01-03 03:28:00,
2014-01-02 21:33:00,-1.9,-7.3,30.46,ESE,122,3.0,5.0,77,0.00,,,0.00,WeatherCatV1.21B27,2014-01-03 03:33:00,
2014-01-02 21:38:00,-1.7,-7.1,30.46,SE,128,0.0,9.0,77,0.00,,,0.00,WeatherCatV1.21B27,2014-01-03 03:38:00,
2014-01-02 21:43:00,-1.4,-6.8,30.46,ESE,115,4.0,7.0,77,0.00,,,0.00,WeatherCatV1.21B27,2014-01-03 03:43:00,
2014-01-02 21:48:00,-1.2,-6.6,30.46,SE,145,3.0,6.0,77,0.00,,,0.00,WeatherCatV1.21B27,2014-01-03 03:48:00,
2014-01-02 21:53:00,-1.0,-6.4,30.46,SSE,153,3.0,4.0,77,0.00,,,0.00,WeatherCatV1.21B27,2014-01-03 03:53:00,
2014-01-02 21:58:00,-0.9,-6.3,30.45,ESE,116,3.0,5.0,77,0.00,,,0.00,WeatherCatV1.21B27,2014-01-03 03:58:00,
2014-01-02 22:03:00,-0.9,-6.3,30.45,SE,125,4.0,5.0,77,0.00,,,0.00,WeatherCatV1.21B27,2014-01-03 04:03:00,
2014-01-02 22:08:00,-1.0,-6.7,30.45,SE,133,4.0,5.0,76,0.00,,,0.00,WeatherCatV1.21B27,2014-01-03 04:08:00,
2014-01-02 22:13:00,-1.0,-6.7,30.45,ESE,108,7.0,10.0,76,0.00,,,0.00,WeatherCatV1.21B27,2014-01-03 04:13:00,
2014-01-02 22:18:00,-1.0,-6.4,30.45,ESE,113,1.0,7.0,77,0.00,,,0.00,WeatherCatV1.21B27,2014-01-03 04:18:00,
2014-01-02 22:23:00,-0.9,-6.3,30.44,SE,124,2.0,5.0,77,0.00,,,0.00,WeatherCatV1.21B27,2014-01-03 04:23:00,
2014-01-02 22:28:00,-0.7,-6.2,30.45,SE,145,5.0,11.0,77,0.00,,,0.00,WeatherCatV1.21B27,2014-01-03 04:28:00,
2014-01-02 22:33:00,-0.5,-5.9,30.44,SE,137,5.0,8.0,77,0.00,,,0.00,WeatherCatV1.21B27,2014-01-03 04:33:00,
2014-01-02 22:38:00,-0.5,-5.9,30.44,ESE,122,4.0,5.0,77,0.00,,,0.00,WeatherCatV1.21B27,2014-01-03 04:38:00,
2014-01-02 22:43:00,-0.4,-5.6,30.44,SE,140,2.0,5.0,78,0.00,,,0.00,WeatherCatV1.21B27,2014-01-03 04:43:00,
2014-01-02 22:48:00,-0.3,-5.5,30.43,SE,124,3.0,10.0,78,0.00,,,0.00,WeatherCatV1.21B27,2014-01-03 04:48:00,
2014-01-02 22:53:00,-0.2,-5.4,30.43,ESE,118,3.0,10.0,78,0.00,,,0.00,WeatherCatV1.21B27,2014-01-03 04:53:00,
2014-01-02 22:58:00,-0.1,-5.3,30.43,SSE,149,1.0,7.0,78,0.00,,,0.00,WeatherCatV1.21B27,2014-01-03 04:58:00,
2014-01-02 23:01:00,0.0,-5.2,30.44,SE,141,3.0,6.0,78,0.00,,,0.00,WeatherCatV1.21B27,2014-01-03 05:01:00,
2014-01-02 23:03:00,0.0,-5.2,30.44,SE,135,5.0,5.0,78,0.00,,,0.00,WeatherCatV1.21B27,2014-01-03 05:03:00,
2014-01-02 23:08:00,0.2,-5.0,30.43,ESE,117,4.0,8.0,78,0.00,,,0.00,WeatherCatV1.21B27,2014-01-03 05:08:00,
2014-01-02 23:13:00,0.3,-4.9,30.43,SE,127,1.0,4.0,78,0.00,,,0.00,WeatherCatV1.21B27,2014-01-03 05:13:00,
2014-01-02 23:18:00,0.4,-4.8,30.43,SE,143,3.0,4.0,78,0.00,,,0.00,WeatherCatV1.21B27,2014-01-03 05:18:00,
2014-01-02 23:23:00,0.6,-4.3,30.43,SE,129,1.0,7.0,79,0.00,,,0.00,WeatherCatV1.21B27,2014-01-03 05:23:00,
2014-01-02 23:28:00,0.7,-4.2,30.43,SE,137,1.0,4.0,79,0.00,,,0.00,WeatherCatV1.21B27,2014-01-03 05:28:00,
2014-01-02 23:33:00,0.9,-4.1,30.43,ESE,119,0.0,8.0,79,0.00,,,0.00,WeatherCatV1.21B27,2014-01-03 05:33:00,
2014-01-02 23:38:00,1.2,-4.0,30.42,ESE,116,3.0,5.0,78,0.00,,,0.00,WeatherCatV1.21B27,2014-01-03 05:38:00,
2014-01-02 23:43:00,1.3,-3.9,30.42,ESE,120,1.0,7.0,78,0.00,,,0.00,WeatherCatV1.21B27,2014-01-03 05:43:00,
2014-01-02 23:48:00,1.4,-3.8,30.41,ESE,122,11.0,11.0,78,0.00,,,0.00,WeatherCatV1.21B27,2014-01-03 05:48:00,
2014-01-02 23:53:00,1.5,-3.7,30.41,SE,128,2.0,8.0,78,0.00,,,0.00,WeatherCatV1.21B27,2014-01-03 05:53:00,
2014-01-02 23:58:00,1.5,-3.7,30.40,SSE,159,2.0,5.0,78,0.00,,,0.00,WeatherCatV1.21B27,2014-01-03 05:58:00,